[[{"header":{"parameterUnit":"m.s-1","parameterCategory":1,"la1":30.2991,"la2":30.254,"lo1":-89.0895,"lo2":-89.0444,"dy":0.0017,"dx":0.0017,"nx":28,"ny":28,"refTime":"2024-12-18T09:00:00:Z","depth":0,"parameterNumber":2,"parameterNumberName":"U-component_of_WINDS"},"data":[0,0,0,0,0,0,0,0,0,0,0,0,0,0,0,0,0,0,0,0,0,0,0,0,0,0,0,0,0,0,0,0,0,0,0,0,0,0,0,0,0,0,0,0,0,0,0,0,0,0,0,0,0,0,0,0,0,0,-1.1626,-1.1627,0,-1.1723,-1.1725,-1.1726,-1.1735,-1.1734,-1.1732,-1.1732,-1.183,-1.1834,-1.1837,0,0,0,0,0,0,0,0,0,0,0,0,0,-1.1448,-1.1451,-1.1626,-1.1628,-1.1629,-1.1723,-1.1725,-1.1726,-1.1735,-1.1733,-1.1732,-1.1731,-1.1829,-1.1833,-1.1838,0,0,0,0,0,0,0,0,0,0,0,0,0,-1.1533,-1.1452,-1.1626,-1.1645,-1.1647,-1.1723,-1.1725,-1.1726,-1.1735,-1.1733,-1.1732,-1.173,-1.1828,-1.1833,-1.1838,-1.1902,0,0,-1.1855,-1.1857,0,0,0,0,0,0,0,0,-1.1528,-1.154,-1.1641,-1.1643,-1.1646,-1.1715,-1.1698,-1.1785,-1.1735,-1.1702,-1.1731,-1.173,-1.1793,-1.1801,-1.1823,-1.1907,-1.1911,-1.1855,-1.1858,-1.1861,-1.1862,0,0,0,0,0,0,0,-1.1522,-1.1536,-1.1665,-1.1642,-1.1646,-1.1648,-1.1658,-1.1715,-1.1755,-1.1704,-1.1705,-1.1717,-1.1794,-1.1818,-1.1825,-1.1912,-1.1855,-1.186,-1.1863,-1.1865,-1.2055,-1.2056,0,0,0,0,0,0,-1.1513,-1.1531,-1.1662,-1.1668,-1.1582,-1.1652,-1.1664,-1.1695,-1.1754,-1.1762,-1.1718,-1.1717,-1.1809,-1.1819,-1.1829,-1.1909,-1.1861,-1.1866,-1.1869,-1.2053,-1.2055,-1.2057,0,0,0,0,0,0,-1.1509,-1.1525,-1.1658,-1.1599,-1.1617,-1.1657,-1.1692,-1.1698,-1.1721,-1.1764,-1.1772,-1.1734,-1.1808,-1.1821,-1.1884,-1.1912,-1.1868,-1.1873,-1.2051,-1.2053,-1.2056,-1.2068,0,0,0,0,0,0,-1.1504,-1.1523,-1.1548,-1.16,-1.162,-1.1712,-1.1693,-1.1701,-1.173,-1.1729,-1.1782,-1.1789,-1.1808,-1.1876,-1.1889,-1.1919,-1.1877,-1.2048,-1.2052,-1.2055,-1.2066,-1.2071,-1.2076,0,0,0,0,0,-1.1498,-1.1547,-1.1549,-1.1565,-1.1652,-1.1713,-1.1725,-1.1746,-1.1732,-1.1758,-1.1786,-1.1787,-1.1907,-1.1882,-1.1898,-1.1929,-1.2047,-1.2051,-1.2055,-1.2063,-1.207,-1.2076,0,0,0,0,0,0,-1.1498,-1.1555,-1.1557,-1.1625,-1.1665,-1.1715,-1.1748,-1.1752,-1.1796,-1.1794,-1.1818,-1.183,-1.1892,-1.1916,-1.1889,-1.1994,-1.1975,-1.1983,-1.1977,-1.1983,-1.1988,-1.1982,-1.1882,0,0,0,0,0,-1.1505,-1.1551,-1.1598,-1.1654,-1.1673,-1.1707,-1.1734,-1.1748,-1.1789,-1.1806,-1.1838,-1.1878,-1.1925,-1.1955,-1.2,-1.2069,-1.2081,-1.2098,-1.2103,-1.2107,-1.2113,-1.2152,-1.2161,-1.207,-1.207,-1.207,0,0,-1.1522,-1.1559,-1.1586,-1.1655,-1.1686,-1.1733,-1.1721,-1.177,-1.1806,-1.1813,-1.1875,-1.19,-1.1946,-1.2013,-1.2043,-1.2035,-1.2141,-1.2112,-1.2115,-1.2119,-1.2158,-1.2166,-1.2174,-1.2073,-1.2073,-1.2072,0,0,-1.1577,-1.1609,-1.166,-1.1692,-1.174,-1.1762,-1.1774,-1.1824,-1.1841,-1.1904,-1.1911,-1.1952,-1.2032,-1.2065,-1.2092,-1.2159,-1.2163,-1.2173,-1.2201,-1.2239,-1.2246,-1.2252,-1.2278,-1.2286,-1.2179,-1.2179,-1.2179,0,-1.1592,-1.1663,-1.1685,-1.1735,-1.1765,-1.1774,-1.1825,-1.1855,-1.1916,-1.1937,-1.1926,-1.2027,-1.2058,-1.2133,-1.2149,-1.217,-1.2186,-1.2168,-1.2243,-1.225,-1.2256,-1.2281,-1.229,-1.218,-1.218,-1.218,-1.218,0,-1.168,-1.1729,-1.1764,-1.1823,-1.1856,-1.1907,-1.1936,-1.1967,-1.1977,-1.2,-1.2064,-1.2102,-1.2156,-1.2174,-1.2184,-1.2251,-1.2244,-1.2238,-1.2219,-1.2265,-1.2289,-1.2298,-1.2182,-1.2182,-1.2181,-1.2181,0,0,-1.1738,-1.1809,-1.1821,-1.1849,-1.1903,-1.1941,-1.1992,-1.2045,-1.2072,-1.2113,-1.2157,-1.2224,-1.2219,-1.2249,-1.2263,-1.2296,-1.2349,-1.2286,-1.2287,-1.2298,-1.2426,-1.2431,-1.2442,-1.235,-1.2352,-1.2354,-1.2422,0,-1.1801,-1.1892,-1.1913,-1.1991,-1.2038,-1.2047,-1.2091,-1.2129,-1.2152,-1.2194,-1.2219,-1.2267,-1.2255,-1.2274,-1.2307,-1.2335,-1.2375,-1.233,-1.2392,-1.2394,-1.2382,-1.2454,-1.246,-1.2523,-1.2431,-1.2433,-1.2434,0,-1.1886,-1.193,-1.2013,-1.2062,-1.2082,-1.2122,-1.2173,-1.2212,-1.2256,-1.227,-1.2304,-1.2315,-1.2368,-1.2345,-1.242,-1.2389,-1.2415,-1.2432,-1.2435,-1.2444,-1.2418,-1.2465,-1.2543,-1.2554,-1.2449,-1.2447,-1.2446,0,-1.1922,-1.2002,-1.2063,-1.2086,-1.2144,-1.2172,-1.2197,-1.2239,-1.2269,-1.2313,-1.2333,-1.2382,-1.2409,-1.2447,-1.247,-1.2452,-1.2543,-1.2522,-1.2557,-1.2557,-1.2578,-1.2576,-1.2663,-1.2591,-1.2591,-1.2591,-1.2591,0,-1.1991,-1.2042,-1.208,-1.2118,-1.2175,-1.2198,-1.2254,-1.228,-1.2317,-1.2359,-1.2369,-1.2409,-1.2436,-1.248,-1.2498,-1.2557,-1.2569,-1.2582,-1.2587,-1.2583,-1.2581,-1.2602,-1.2599,-1.2594,-1.2593,-1.2593,-1.2592,0,-1.2042,-1.207,-1.2137,-1.2186,-1.22,-1.224,-1.2282,-1.2319,-1.2342,-1.2396,-1.2409,-1.2445,-1.2497,-1.2523,-1.2588,-1.26,-1.2667,-1.2668,-1.2653,-1.2656,-1.269,-1.2687,-1.2794,-1.2809,-1.2726,-1.2727,-1.2727,0,-1.2085,-1.2124,-1.2178,-1.2208,-1.2234,-1.2281,-1.2313,-1.2336,-1.2369,-1.2421,-1.2452,-1.2504,-1.2548,-1.263,-1.2662,-1.2711,-1.2714,-1.2748,-1.2722,-1.2717,-1.2717,-1.2715,-1.272,-1.2753,-1.2754,-1.2755,-1.2755,0,-1.2158,-1.217,-1.2215,-1.2266,-1.2303,-1.2344,-1.2384,-1.2407,-1.2437,-1.2473,-1.2527,-1.256,-1.2626,-1.2679,-1.273,-1.2756,-1.2762,-1.2763,-1.2774,-1.2771,-1.2762,-1.2769,-1.2668,-1.2761,-1.2761,-1.276,-1.276,-1.276,-1.2208,-1.2244,-1.2288,-1.2338,-1.2371,-1.2408,-1.2446,-1.2473,-1.2518,-1.2574,-1.2585,-1.2642,-1.2684,-1.2755,-1.2782,-1.2827,-1.282,-1.2835,-1.284,-1.2844,-1.2846,-1.2753,-1.2836,-1.2836,-1.2836,-1.2836,-1.2836,0,-1.2283,-1.2312,-1.2358,-1.2414,-1.2454,-1.2455,-1.2499,-1.2532,-1.2583,-1.2622,-1.2664,-1.2726,-1.2777,-1.2812,-1.2864,-1.2893,-1.2897,-1.2906,-1.2905,-1.2911,-1.2849,-1.2835,-1.2902,-1.2902,-1.2902,-1.2902,-1.2902,-1.2902,-1.2327,-1.2389,-1.2406,-1.2484,-1.2512,-1.2569,-1.2594,-1.2629,-1.266,-1.2729,-1.2771,-1.2794,-1.2832,-1.2887,-1.2933,-1.2943,-1.2962,-1.2971,-1.2981,-1.2922,-1.2915,-1.2909,-1.2896,-1.2975,-1.2975,-1.304,-1.304,-1.3041]},{"header":{"parameterUnit":"m.s-1","parameterCategory":1,"la1":30.2991,"la2":30.254,"lo1":-89.0895,"lo2":-89.0444,"dy":0.0017,"dx":0.0017,"nx":28,"ny":28,"refTime":"2024-12-18T09:00:00:Z","depth":0,"parameterNumber":3,"parameterNumberName":"V-component_of_WINDS"},"data":[0,0,0,0,0,0,0,0,0,0,0,0,0,0,0,0,0,0,0,0,0,0,0,0,0,0,0,0,0,0,0,0,0,0,0,0,0,0,0,0,0,0,0,0,0,0,0,0,0,0,0,0,0,0,0,0,0,0,-4.6365,-4.6366,0,-4.6472,-4.6474,-4.6475,-4.6474,-4.6473,-4.6471,-4.647,-4.6575,-4.6579,-4.6583,0,0,0,0,0,0,0,0,0,0,0,0,0,-4.6155,-4.6159,-4.6365,-4.6366,-4.6367,-4.6472,-4.6474,-4.6475,-4.6474,-4.6473,-4.6471,-4.6469,-4.6574,-4.6578,-4.6583,0,0,0,0,0,0,0,0,0,0,0,0,0,-4.6252,-4.616,-4.6364,-4.638,-4.6382,-4.6472,-4.6474,-4.6476,-4.6475,-4.6473,-4.6471,-4.6469,-4.6572,-4.6578,-4.6584,-4.6664,0,0,-4.6603,-4.6605,0,0,0,0,0,0,0,0,-4.6247,-4.626,-4.6376,-4.6379,-4.6382,-4.6458,-4.6438,-4.6538,-4.6475,-4.6439,-4.647,-4.6468,-4.6537,-4.6546,-4.6571,-4.6669,-4.6673,-4.6603,-4.6607,-4.661,-4.6611,0,0,0,0,0,0,0,-4.624,-4.6255,-4.6407,-4.6378,-4.6381,-4.638,-4.6392,-4.6457,-4.6499,-4.6442,-4.6443,-4.6456,-4.6538,-4.6565,-4.6573,-4.6675,-4.6603,-4.6609,-4.6612,-4.6615,-4.6846,-4.6848,0,0,0,0,0,0,-4.6231,-4.625,-4.6404,-4.641,-4.6308,-4.6386,-4.6399,-4.6435,-4.6498,-4.6506,-4.6457,-4.6455,-4.6555,-4.6566,-4.6577,-4.6677,-4.661,-4.6615,-4.6619,-4.6844,-4.6847,-4.6849,0,0,0,0,0,0,-4.6226,-4.6245,-4.6399,-4.633,-4.635,-4.6392,-4.6433,-4.6439,-4.6465,-4.6509,-4.6516,-4.6477,-4.6554,-4.6568,-4.6643,-4.668,-4.6618,-4.6624,-4.6841,-4.6845,-4.6848,-4.6875,0,0,0,0,0,0,-4.622,-4.6243,-4.6274,-4.6331,-4.6354,-4.6465,-4.6435,-4.6442,-4.6477,-4.6475,-4.653,-4.6537,-4.6554,-4.6634,-4.6649,-4.6688,-4.6628,-4.6838,-4.6842,-4.6847,-4.6871,-4.688,-4.6887,0,0,0,0,0,-4.6213,-4.6276,-4.6276,-4.6295,-4.6394,-4.6467,-4.648,-4.65,-4.6479,-4.6511,-4.654,-4.6535,-4.6673,-4.6642,-4.6659,-4.6699,-4.6835,-4.6841,-4.6847,-4.6868,-4.6878,-4.6886,0,0,0,0,0,0,-4.622,-4.6284,-4.6284,-4.6368,-4.6413,-4.6467,-4.6507,-4.6509,-4.6559,-4.6555,-4.6575,-4.6588,-4.6663,-4.6688,-4.6652,-4.6781,-4.6752,-4.6761,-4.6762,-4.6772,-4.678,-4.6772,-4.6634,0,0,0,0,0,-4.6232,-4.6287,-4.6339,-4.6408,-4.643,-4.6465,-4.6498,-4.651,-4.6556,-4.6574,-4.6608,-4.6651,-4.6705,-4.674,-4.6791,-4.6875,-4.6887,-4.6911,-4.6919,-4.6925,-4.6933,-4.6981,-4.6993,-4.6868,-4.6868,-4.6867,0,0,-4.6255,-4.6297,-4.633,-4.641,-4.6446,-4.6503,-4.6481,-4.6541,-4.6583,-4.6582,-4.6656,-4.6683,-4.6733,-4.6813,-4.685,-4.6837,-4.697,-4.6932,-4.6936,-4.6941,-4.6988,-4.7,-4.701,-4.6871,-4.6871,-4.687,0,0,-4.6329,-4.6365,-4.6428,-4.6465,-4.6521,-4.6544,-4.6559,-4.6614,-4.6633,-4.6708,-4.671,-4.6759,-4.685,-4.6887,-4.6917,-4.7007,-4.7005,-4.7023,-4.7063,-4.711,-4.7119,-4.7128,-4.7162,-4.7174,-4.703,-4.703,-4.7031,0,-4.6351,-4.6438,-4.6459,-4.6521,-4.6557,-4.6561,-4.6625,-4.6659,-4.6728,-4.6752,-4.6736,-4.6853,-4.6887,-4.6977,-4.7,-4.7023,-4.7041,-4.7017,-4.7117,-4.7126,-4.7134,-4.7167,-4.7179,-4.7032,-4.7032,-4.7032,-4.7032,0,-4.6463,-4.6523,-4.6567,-4.6637,-4.6677,-4.6739,-4.677,-4.6808,-4.6816,-4.6841,-4.6918,-4.6959,-4.7021,-4.7042,-4.705,-4.7134,-4.7125,-4.7112,-4.7083,-4.7148,-4.7179,-4.7191,-4.7035,-4.7035,-4.7034,-4.7034,0,0,-4.6543,-4.6626,-4.6642,-4.6675,-4.6738,-4.6784,-4.6846,-4.6909,-4.6942,-4.6989,-4.7042,-4.7121,-4.7111,-4.7146,-4.7158,-4.7198,-4.727,-4.7182,-4.7183,-4.7198,-4.7367,-4.7377,-4.7391,-4.7268,-4.7271,-4.7273,-4.7364,0,-4.6624,-4.6738,-4.676,-4.6859,-4.6915,-4.6922,-4.6976,-4.702,-4.7045,-4.7096,-4.7122,-4.7179,-4.7161,-4.7182,-4.7223,-4.7252,-4.7304,-4.7246,-4.7318,-4.732,-4.7307,-4.7407,-4.7417,-4.7501,-4.7376,-4.7378,-4.7379,0,-4.6733,-4.6788,-4.6892,-4.6951,-4.6975,-4.7024,-4.7084,-4.7133,-4.7183,-4.7198,-4.7239,-4.7247,-4.7311,-4.7279,-4.7369,-4.7329,-4.736,-4.7379,-4.7383,-4.7391,-4.7354,-4.7419,-4.7528,-4.7541,-4.7398,-4.7396,-4.7395,0,-4.6784,-4.6882,-4.6958,-4.6986,-4.7055,-4.7089,-4.7119,-4.7168,-4.7205,-4.7257,-4.7281,-4.7339,-4.737,-4.7415,-4.7438,-4.7412,-4.7527,-4.7496,-4.7542,-4.7541,-4.7566,-4.7564,-4.7683,-4.7583,-4.7583,-4.7583,-4.7583,0,-4.6873,-4.6937,-4.6982,-4.7029,-4.7102,-4.7127,-4.7197,-4.7226,-4.727,-4.7322,-4.733,-4.7378,-4.7406,-4.7458,-4.7476,-4.7549,-4.7563,-4.7577,-4.7581,-4.7577,-4.7576,-4.7598,-4.7594,-4.7586,-4.7586,-4.7585,-4.7584,0,-4.6941,-4.6974,-4.7058,-4.7118,-4.7134,-4.7185,-4.7236,-4.7281,-4.7307,-4.7373,-4.739,-4.743,-4.7492,-4.752,-4.7596,-4.7608,-4.7692,-4.7691,-4.7676,-4.7678,-4.7723,-4.7719,-4.7861,-4.7881,-4.7767,-4.7768,-4.7769,0,-4.6996,-4.7047,-4.7113,-4.715,-4.7182,-4.7241,-4.728,-4.7306,-4.7346,-4.7409,-4.7447,-4.751,-4.7562,-4.7661,-4.7696,-4.7755,-4.7756,-4.7802,-4.7765,-4.776,-4.7759,-4.7757,-4.7763,-4.7809,-4.781,-4.7811,-4.7812,0,-4.7092,-4.7107,-4.7163,-4.7227,-4.7274,-4.7324,-4.7373,-4.7402,-4.7436,-4.748,-4.7546,-4.7587,-4.7666,-4.7729,-4.7791,-4.782,-4.7822,-4.7823,-4.7838,-4.7835,-4.7825,-4.7833,-4.7696,-4.782,-4.7819,-4.7819,-4.7818,-4.7818,-4.7157,-4.7203,-4.7258,-4.7321,-4.7362,-4.7409,-4.7456,-4.7489,-4.7544,-4.7613,-4.7625,-4.7695,-4.7745,-4.7828,-4.786,-4.7915,-4.7904,-4.7923,-4.7929,-4.7934,-4.7938,-4.7815,-4.7926,-4.7925,-4.7925,-4.7925,-4.7925,0,-4.7254,-4.7291,-4.7349,-4.742,-4.747,-4.747,-4.7525,-4.7566,-4.7629,-4.7677,-4.7729,-4.7805,-4.7867,-4.7908,-4.797,-4.8006,-4.8009,-4.8022,-4.802,-4.8027,-4.7943,-4.7926,-4.8019,-4.8019,-4.8019,-4.8019,-4.8019,-4.8019,-4.7311,-4.739,-4.7412,-4.7511,-4.7546,-4.7618,-4.7649,-4.7692,-4.7731,-4.7817,-4.7869,-4.7896,-4.7942,-4.8008,-4.8064,-4.8075,-4.8098,-4.8112,-4.8122,-4.8042,-4.8033,-4.8023,-4.8007,-4.8116,-4.8116,-4.8202,-4.8202,-4.8203]}]]